Weather History for Rochelle, IL

Change the Weather History Date:

Tuesday, November 20, 2012

  Actual Average (KRFD) Record (KRFD)
Temperature  
Mean Temperature 44 °F 37 °F  
Max Temperature 57 °F 45 °F 69 °F (1942)
Min Temperature 32 °F 28 °F 5 °F (1914)
Degree Days  
Heating Degree Days 20 28  
Month to date heating degree days 470  
Since 1 July heating degree days 1023  
Cooling Degree Days 0 0  
Month to date cooling degree days 0  
Year to date cooling degree days 820  
Moisture  
Dew Point 42 °F    
Average Humidity 84    
Maximum Humidity 100    
Minimum Humidity 66    
Precipitation  
Precipitation 0.00 in 0.08 in 0.85 in (1907)
Month to date precipitation 1.75  
Year to date precipitation 33.43  
Snow  
Snow 0.00 in 0.10 in 2.40 in (1964)
Month to date snowfall 0.5  
Since 1 July snowfall 0.6  
Since 1 September snowfall 0.6  
Snow Depth -    
Sea Level Pressure  
Sea Level Pressure 30.12 in    
Wind  
Wind Speed 3 mph (NW)    
Max Wind Speed 10 mph    
Max Gust Speed -    
Visibility 5 miles    
Events Fog , Rain , Snow    
T = Trace of Precipitation, MM = Missing Value Source: NWS Daily Summary

Daily Weather History Graph

Daily Weather History Graph

Search for Another Location

Airport:

Trip Planner

Search our weather history database for the weather conditions in past years. The results will help you decide how hot, cold, wet, or windy it might be!

Date:

Astronomy

Nov. 20, 2012 Rise Set
Actual Time 6:52 AM CST 4:31 PM CST
Civil Twilight 6:22 AM CST 5:01 PM CST
Nautical Twilight 5:48 AM CST 5:35 PM CST
Astronomical Twilight 5:14 AM CST 6:08 PM CST
Moon 12:23 PM CST (11/20) No Moon Set
Length of Visible Light 10h 39m
Length of Day
9h 38m
First Quarter, 51% of the Moon is Illuminated
Nov 20
First Quarter
Nov 28
Full
Dec 6
Last Quarter
Dec 13
New
Dec 19
First Quarter

Hourly Weather History & Observations

Time (CST) Temp. Windchill Dew Point Humidity Pressure Visibility Wind Dir Wind Speed Gust Speed Precip Events Conditions
12:15 AM 47.8 °F - 41.9 °F 80% 30.09 in 10.0 mi SSW 6.9 mph - N/A   Overcast
12:35 AM 47.7 °F - 41.9 °F 80% 30.09 in 7.0 mi South 5.8 mph - N/A   Overcast
12:55 AM 47.5 °F - 41.9 °F 81% 30.09 in 7.0 mi South 4.6 mph - N/A   Overcast
1:15 AM 47.3 °F - 41.9 °F 82% 30.08 in 7.0 mi South 4.6 mph - N/A   Overcast
1:35 AM 46.6 °F - 41.9 °F 84% 30.08 in 7.0 mi South 3.5 mph - N/A   Overcast
1:55 AM 46.6 °F - 41.9 °F 84% 30.08 in 7.0 mi SSW 3.5 mph - N/A   Overcast
2:15 AM 46.9 °F - 42.1 °F 83% 30.08 in 7.0 mi SSW 3.5 mph - N/A   Overcast
2:35 AM 46.4 °F 45.2 °F 41.9 °F 84% 30.08 in 7.0 mi SSW 3.5 mph - N/A   Overcast
6:15 AM 45.5 °F - 42.6 °F 90% 30.09 in 7.0 mi Calm Calm - N/A   Overcast
6:35 AM 45.5 °F - 42.3 °F 88% 30.09 in 7.0 mi Calm Calm - N/A   Overcast
6:55 AM 45.1 °F - 42.3 °F 90% 30.10 in 7.0 mi Calm Calm - N/A   Overcast
7:15 AM 45.1 °F - 42.6 °F 91% 30.11 in 7.0 mi Calm Calm - N/A   Overcast
7:35 AM 45.7 °F - 42.3 °F 88% 30.11 in 5.0 mi Calm Calm - N/A   Overcast
7:55 AM 45.9 °F - 43.0 °F 90% 30.11 in 5.0 mi Calm Calm - N/A   Overcast
8:15 AM 46.8 °F - 43.2 °F 87% 30.11 in 5.0 mi Calm Calm - N/A   Overcast
8:35 AM 47.5 °F - 43.3 °F 86% 30.12 in 5.0 mi Calm Calm - N/A   Haze
8:55 AM 48.7 °F - 43.0 °F 80% 30.11 in 5.0 mi Calm Calm - N/A   Haze
9:15 AM 50.0 °F - 43.2 °F 77% 30.12 in 5.0 mi North 3.5 mph - N/A   Haze
9:35 AM 50.0 °F - 43.9 °F 79% 30.12 in 5.0 mi Calm Calm - N/A   Haze
9:55 AM 50.9 °F - 44.6 °F 79% 30.12 in 5.0 mi Calm Calm - N/A   Haze
10:15 AM 51.4 °F - 45.3 °F 80% 30.12 in 5.0 mi NNW 3.5 mph - N/A   Haze
10:35 AM 52.0 °F - 45.9 °F 80% 30.12 in 5.0 mi North 4.6 mph - N/A   Haze
10:55 AM 52.7 °F - 45.7 °F 77% 30.11 in 7.0 mi Calm Calm - N/A   Mostly Cloudy
11:15 AM 53.4 °F - 45.9 °F 76% 30.11 in 7.0 mi Calm Calm - N/A   Overcast
11:35 AM 53.4 °F - 46.0 °F 76% 30.11 in 5.0 mi Calm Calm - N/A   Haze
11:55 AM 54.5 °F - 46.4 °F 74% 30.11 in 7.0 mi NW 3.5 mph - N/A   Scattered Clouds
12:15 PM 56.3 °F - 46.6 °F 70% 30.10 in 7.0 mi North 3.5 mph - N/A   Scattered Clouds
12:35 PM 56.3 °F - 46.2 °F 69% 30.10 in 7.0 mi NNW 8.1 mph - N/A   Clear
12:55 PM 56.1 °F - 45.7 °F 68% 30.10 in 7.0 mi NW 3.5 mph - N/A   Scattered Clouds
1:15 PM 56.5 °F - 45.9 °F 68% 30.09 in 7.0 mi NNW 5.8 mph - N/A   Scattered Clouds
1:35 PM 56.5 °F - 45.7 °F 67% 30.09 in 7.0 mi NNW 6.9 mph - N/A   Scattered Clouds
2:15 PM 57.2 °F - 46.2 °F 67% 30.09 in 7.0 mi North 10.4 mph - N/A   Scattered Clouds
2:35 PM 56.8 °F - 45.5 °F 66% 30.09 in 7.0 mi North 6.9 mph - N/A   Scattered Clouds
2:55 PM 57.0 °F - 45.9 °F 66% 30.09 in 7.0 mi North 9.2 mph - N/A   Clear
3:15 PM 56.8 °F - 45.5 °F 66% 30.10 in 7.0 mi NNW 6.9 mph - N/A   Clear
3:35 PM 56.3 °F - 45.5 °F 67% 30.10 in 10.0 mi North 6.9 mph - N/A   Clear
3:55 PM 55.2 °F - 45.5 °F 70% 30.12 in 7.0 mi North 6.9 mph - N/A   Clear
4:15 PM 53.6 °F - 44.8 °F 72% 30.12 in 7.0 mi NNW 4.6 mph - N/A   Clear
4:35 PM 52.3 °F - 44.4 °F 74% 30.12 in 7.0 mi NNW 4.6 mph - N/A   Clear
4:55 PM 50.2 °F - 43.3 °F 77% 30.13 in 7.0 mi Calm Calm - N/A   Clear
5:15 PM 49.6 °F - 43.9 °F 81% 30.13 in 7.0 mi Calm Calm - N/A   Clear
5:35 PM 46.6 °F - 42.1 °F 84% 30.14 in 7.0 mi WNW 3.5 mph - N/A   Clear
5:55 PM 47.1 °F - 43.0 °F 86% 30.15 in 7.0 mi NW 5.8 mph - N/A   Clear
6:15 PM 46.4 °F 44.3 °F 42.3 °F 85% 30.16 in 7.0 mi NNW 4.6 mph - N/A   Clear
6:35 PM 43.0 °F - 40.3 °F 90% 30.16 in 7.0 mi Calm Calm - N/A   Clear
6:55 PM 43.9 °F - 42.1 °F 93% 30.15 in 7.0 mi Calm Calm - N/A   Clear
7:15 PM 41.9 °F - 38.8 °F 89% 30.15 in 5.0 mi Calm Calm - N/A   Clear
7:35 PM 39.7 °F - 38.5 °F 95% 30.16 in 4.0 mi Calm Calm - N/A   Clear
7:55 PM 36.9 °F - 35.8 °F 96% 30.16 in 3.0 mi Calm Calm - N/A   Clear
8:15 PM 38.8 °F - 38.1 °F 97% 30.17 in 1.0 mi Calm Calm - N/A   Mist
8:35 PM 37.2 °F - 36.5 °F 97% 30.17 in 2.5 mi Calm Calm - N/A   Mostly Cloudy
8:55 PM 35.6 °F - 34.9 °F 97% 30.17 in 0.2 mi Calm Calm - N/A Rain Heavy Rain
9:15 PM 35.6 °F - 35.6 °F 100% 30.18 in 0.2 mi Calm Calm - N/A Fog Fog
9:35 PM 33.1 °F - 32.9 °F 99% 30.17 in 0.2 mi Calm Calm - N/A Rain Light Rain
9:55 PM 32.0 °F - 32.0 °F 100% 30.17 in 0.2 mi Calm Calm - N/A Fog Fog
10:15 PM 32.4 °F 29.1 °F 32.4 °F 100% 30.17 in 0.2 mi SSE 3.5 mph - N/A   Light Drizzle
10:35 PM 32.9 °F - 32.9 °F 100% 30.17 in 0.2 mi Calm Calm - N/A Fog Fog
10:55 PM 33.8 °F - 33.8 °F 100% 30.18 in 0.2 mi Calm Calm - N/A Fog Fog
11:15 PM 34.9 °F - 34.9 °F 100% 30.18 in 0.2 mi Calm Calm - N/A Fog Fog
11:35 PM 35.8 °F - 35.8 °F 100% 30.18 in 0.2 mi Calm Calm - N/A Snow Light Snow
11:55 PM 37.0 °F - 37.0 °F 100% 30.19 in 0.2 mi Calm Calm - N/A Rain Rain